CST,Max TemperatureF,Mean TemperatureF,Min TemperatureF,Max Dew PointF,MeanDew PointF,Min DewpointF,Max Humidity, Mean Humidity, Min Humidity, Max Sea Level PressureIn, Mean Sea Level PressureIn, Min Sea Level PressureIn, Max VisibilityMiles, Mean VisibilityMiles, Min VisibilityMiles, Max Wind SpeedMPH, Mean Wind SpeedMPH, Max Gust SpeedMPH,PrecipitationIn, CloudCover, Events, WindDirDegrees
2011-11-1,67,51,34,43,34,27,82,62,42,29.99,29.91,29.85,10,10,1,17,10,21,0.00,0,,210
2011-11-2,47,41,35,39,35,29,93,73,53,30.21,30.14,29.99,10,9,3,29,13,35,0.15,7,Rain,356
2011-11-3,51,37,23,31,27,21,92,64,36,30.31,30.27,30.20,10,10,10,17,8,22,0.00,0,,352
2011-11-4,52,35,18,34,27,17,96,68,39,30.33,30.25,30.12,10,10,9,20,9,26,0.00,0,,151
2011-11-5,51,43,35,43,39,32,92,82,71,30.11,29.93,29.78,10,7,3,31,19,39,0.00,3,,152
2011-11-6,54,45,35,46,36,26,92,67,41,30.08,29.82,29.67,10,9,5,29,16,36,0.00,1,,208
2011-11-7,56,41,26,28,23,18,85,54,22,30.25,30.19,30.09,10,10,9,12,5,14,0.00,1,,299
2011-11-8,48,44,40,28,26,25,59,52,45,30.17,30.12,30.06,10,10,10,21,12,24,0.00,8,,33
2011-11-9,49,41,33,27,22,19,59,47,34,30.09,30.05,30.01,10,10,10,29,18,38,T,3,,323
2011-11-10,42,32,21,24,21,17,81,62,43,30.13,30.09,30.04,10,10,10,26,14,33,0.00,4,,292
2011-11-11,52,36,19,29,24,15,84,61,38,30.01,29.78,29.67,10,10,10,23,10,28,0.00,0,,190
2011-11-12,58,42,26,38,33,25,92,70,47,29.66,29.51,29.29,10,10,10,23,11,26,0.00,0,,182
2011-11-13,56,47,38,37,34,30,79,60,41,29.57,29.37,29.24,10,10,10,23,10,30,0.00,3,,243
2011-11-14,58,43,27,36,26,19,92,59,25,29.67,29.57,29.49,10,10,9,26,12,33,0.00,1,,227
2011-11-15,55,39,22,31,23,13,76,50,24,30.01,29.75,29.52,10,10,10,26,13,33,T,2,Rain,259
2011-11-16,42,28,14,16,11,6,74,49,23,30.24,30.15,30.04,10,10,10,30,13,37,0.00,0,,278
2011-11-17,37,25,12,20,10,5,73,53,32,30.28,30.16,29.91,10,10,10,18,10,23,0.00,0,,226
2011-11-18,55,42,28,30,26,21,85,62,38,29.88,29.74,29.65,10,10,10,25,14,32,0.00,0,,195
2011-11-19,38,32,25,37,30,22,96,87,78,30.15,29.76,29.62,10,6,1,28,11,36,0.05,7,Rain,358
2011-11-20,30,24,17,24,20,15,92,81,69,30.38,30.31,30.17,10,9,2,21,9,25,0.00,6,,12
2011-11-21,37,28,19,33,26,18,100,91,82,30.36,30.28,30.19,8,4,0,13,5,15,0.00,7,Fog,94
2011-11-22,46,40,33,38,35,30,100,88,76,30.20,30.10,30.01,8,3,1,10,5,14,0.00,8,,43
2011-11-23,52,41,30,38,35,30,100,80,59,30.18,30.13,30.10,7,4,0,15,8,18,0.00,3,Fog,191
2011-11-24,63,48,33,42,39,34,100,73,46,30.09,29.96,29.78,10,4,0,25,16,33,0.00,4,Fog,177
2011-11-25,51,47,43,47,44,39,96,81,66,29.78,29.72,29.66,10,6,2,22,14,26,0.08,6,Rain,187
2011-11-26,51,43,34,49,39,30,100,91,82,30.07,29.84,29.67,10,7,3,35,20,41,0.06,8,Rain,291
2011-11-27,34,32,29,29,25,23,82,76,69,30.24,30.18,30.08,10,10,10,26,16,33,0.00,8,,338
2011-11-28,37,31,25,27,25,23,92,81,70,30.21,30.15,30.09,10,10,7,18,8,23,0.00,5,,218
2011-11-29,41,27,13,27,16,7,81,54,27,30.31,30.25,30.18,10,10,10,24,14,30,0.00,0,,335
2011-11-30,47,30,12,17,13,7,74,50,25,30.16,30.04,29.92,10,10,10,22,8,26,0.00,0,,198